Tyrone, NM

2:39 PM MDT on July 23, 2016 (GMT -0600)
Grant County

Weather History for KSVC - July, 2013

Change the Weather History Date:

Monday, July 15, 2013

  Actual Average (KDMN) Record (KDMN)
Temperature  
Mean Temperature 72 °F 81 °F  
Max Temperature 82 °F 96 °F 105 °F (1948)
Min Temperature 62 °F 66 °F 53 °F (1992)
Cooling Degree Days 7    
Growing Degree Days 22 (Base 50)    
Moisture  
Dew Point 57 °F    
Average Humidity 63    
Maximum Humidity 100    
Minimum Humidity 32    
Precipitation  
Precipitation 0.08 in 0.07 in 0.88 in (1990)
Month to date precipitation 0.94  
Year to date precipitation 4.05  
Sea Level Pressure  
Sea Level Pressure 30.14 in    
Wind  
Wind Speed 8 mph (East)    
Max Wind Speed 23 mph    
Max Gust Speed 32 mph    
Visibility 10 miles    
Events Rain , Thunderstorm    
T = Trace of Precipitation, MM = Missing Value Source: NWS Daily Summary

Daily Weather History Graph

Daily Weather History Graph

Search for Another Location

Airport or City:

Trip Planner

Search our weather history database for the weather conditions in past years. The results will help you decide how hot, cold, wet, or windy it might be!

Date:

Astronomy

Jul. 15, 2013 Rise Set
Actual Time 6:15 AM MDT 8:21 PM MDT
Civil Twilight 5:48 AM MDT 8:48 PM MDT
Nautical Twilight 5:14 AM MDT 9:22 PM MDT
Astronomical Twilight 4:37 AM MDT 9:59 PM MDT
Moon 1:11 PM MDT (7/15) 12:00 AM MDT (7/15)
Length of Visible Light 15h 00m
Length of Day
14h 05m
Waxing Crescent, 46% of the Moon is Illuminated
Jul 15
Waxing Crescent
Jul 15
First Quarter
Jul 22
Full
Jul 29
Last Quarter
Aug 6
New

Hourly Weather History & Observations

Time (MDT) Temp. Heat Index Dew Point Humidity Pressure Visibility Wind Dir Wind Speed Gust Speed Precip Events Conditions
12:15 AM 73.4 °F - 55.4 °F 53% 30.11 in 10.0 mi North 10.4 mph - N/A   Overcast
12:35 AM 73.4 °F - 55.4 °F 53% 30.12 in 10.0 mi ENE 6.9 mph - N/A   Overcast
12:55 AM 75.2 °F - 55.4 °F 50% 30.12 in 10.0 mi NE 12.7 mph - N/A   Scattered Clouds
1:15 AM 73.4 °F - 53.6 °F 50% 30.12 in 10.0 mi NE 6.9 mph - N/A   Clear
1:35 AM 71.6 °F - 55.4 °F 57% 30.12 in 10.0 mi NE 6.9 mph - N/A   Clear
1:55 AM 71.6 °F - 55.4 °F 57% 30.12 in 10.0 mi Calm Calm - N/A   Clear
2:15 AM 68.0 °F - 57.2 °F 68% 30.12 in 10.0 mi West 3.5 mph - N/A   Clear
2:35 AM 68.0 °F - 57.2 °F 68% 30.12 in 10.0 mi West 3.5 mph - N/A   Clear
2:55 AM 68.0 °F - 57.2 °F 68% 30.12 in 10.0 mi Calm Calm - N/A   Clear
3:15 AM 68.0 °F - 55.4 °F 64% 30.13 in 10.0 mi NNW 8.1 mph - N/A   Clear
3:35 AM 66.2 °F - 55.4 °F 68% 30.13 in 10.0 mi North 4.6 mph - N/A   Scattered Clouds
3:55 AM 66.2 °F - 57.2 °F 73% 30.13 in 10.0 mi NW 4.6 mph - N/A   Partly Cloudy
4:15 AM 66.2 °F - 57.2 °F 73% 30.13 in 10.0 mi NNW 4.6 mph - N/A   Clear
4:35 AM 64.4 °F - 57.2 °F 77% 30.12 in 10.0 mi NW 6.9 mph - N/A   Clear
4:55 AM 64.4 °F - 57.2 °F 77% 30.12 in 10.0 mi NNW 5.8 mph - N/A   Clear
5:15 AM 64.4 °F - 57.2 °F 77% 30.12 in 10.0 mi NW 8.1 mph - N/A   Clear
5:35 AM 64.4 °F - 55.4 °F 73% 30.12 in 10.0 mi NNW 4.6 mph - N/A   Clear
5:55 AM 62.6 °F - 55.4 °F 77% 30.12 in 10.0 mi NW 5.8 mph - N/A   Clear
6:15 AM 64.4 °F - 57.2 °F 77% 30.12 in 10.0 mi NW 6.9 mph - N/A   Clear
6:35 AM 64.4 °F - 57.2 °F 77% 30.12 in 10.0 mi NNW 9.2 mph - N/A   Clear
6:55 AM 66.2 °F - 57.2 °F 73% 30.13 in 10.0 mi NNW 5.8 mph - N/A   Clear
7:15 AM 68.0 °F - 57.2 °F 68% 30.13 in 10.0 mi Calm Calm - N/A   Clear
7:35 AM 71.6 °F - 57.2 °F 60% 30.14 in 10.0 mi Calm Calm - N/A   Clear
7:55 AM 71.6 °F - 57.2 °F 60% 30.15 in 10.0 mi Calm Calm - N/A   Clear
8:15 AM 71.6 °F - 53.6 °F 53% 30.15 in 10.0 mi NE 3.5 mph - N/A   Clear
8:35 AM 73.4 °F - 55.4 °F 53% 30.15 in 10.0 mi East 4.6 mph - N/A   Clear
8:55 AM 73.4 °F - 55.4 °F 53% 30.15 in 10.0 mi ESE 6.9 mph - N/A   Clear
9:15 AM 73.4 °F - 53.6 °F 50% 30.15 in 10.0 mi SSE 5.8 mph - N/A   Clear
9:35 AM 75.2 °F - 53.6 °F 47% 30.15 in 10.0 mi SSE 4.6 mph - N/A   Clear
9:55 AM 77.0 °F - 51.8 °F 41% 30.15 in 10.0 mi South 6.9 mph - N/A   Clear
10:15 AM 77.0 °F - 50.0 °F 39% 30.15 in 10.0 mi South 5.8 mph - N/A   Clear
10:35 AM 77.0 °F - 51.8 °F 41% 30.15 in 10.0 mi Calm Calm - N/A   Clear
10:55 AM 78.8 °F - 53.6 °F 42% 30.15 in 10.0 mi SSW 3.5 mph - N/A   Clear
11:15 AM 80.6 °F - 51.8 °F 37% 30.15 in 10.0 mi Calm Calm - N/A   Clear
11:35 AM 80.6 °F 80.3 °F 53.6 °F 39% 30.15 in 10.0 mi SW 5.8 mph - N/A   Partly Cloudy
11:55 AM 80.6 °F - 51.8 °F 37% 30.15 in 10.0 mi West 8.1 mph - N/A   Scattered Clouds
12:15 PM 80.6 °F - 50.0 °F 34% 30.15 in 10.0 mi East 3.5 mph - N/A   Mostly Cloudy
12:35 PM 82.4 °F - 50.0 °F 32% 30.14 in 10.0 mi East 9.2 mph - N/A   Mostly Cloudy
12:55 PM 82.4 °F - 50.0 °F 32% 30.14 in 10.0 mi ESE 8.1 mph - N/A   Mostly Cloudy
1:15 PM 82.4 °F - 50.0 °F 32% 30.13 in 10.0 mi South 10.4 mph - N/A   Mostly Cloudy
1:35 PM 82.4 °F - 50.0 °F 32% 30.13 in 10.0 mi SE 6.9 mph - N/A   Mostly Cloudy
1:55 PM 82.4 °F - 50.0 °F 32% 30.13 in 10.0 mi WSW 9.2 mph - N/A   Mostly Cloudy
2:15 PM 77.0 °F - 57.2 °F 50% 30.13 in 5.0 mi West 10.4 mph 16.1 mph N/A Rain Light Rain
2:35 PM 75.2 °F - 59.0 °F 57% 30.12 in 10.0 mi ESE 13.8 mph - 0.01 in Rain , Thunderstorm Light Rain
2:55 PM 75.2 °F - 59.0 °F 57% 30.12 in 10.0 mi ESE 12.7 mph - 0.01 in Thunderstorm Scattered Clouds
3:15 PM 78.8 °F - 57.2 °F 47% 30.11 in 10.0 mi SE 15.0 mph - N/A   Partly Cloudy
3:35 PM 78.8 °F - 57.2 °F 47% 30.11 in 10.0 mi East 13.8 mph - N/A   Partly Cloudy
3:55 PM 77.0 °F - 59.0 °F 54% 30.10 in 10.0 mi East 15.0 mph 23.0 mph N/A   Mostly Cloudy
4:15 PM 75.2 °F - 59.0 °F 57% 30.10 in 10.0 mi ENE 17.3 mph 20.7 mph N/A   Partly Cloudy
4:35 PM 75.2 °F - 59.0 °F 57% 30.10 in 10.0 mi ENE 18.4 mph - N/A   Clear
4:55 PM 75.2 °F - 59.0 °F 57% 30.09 in 10.0 mi NE 23.0 mph 32.2 mph N/A Thunderstorm Clear
5:15 PM 73.4 °F - 59.0 °F 61% 30.09 in 10.0 mi ENE 20.7 mph 27.6 mph N/A Thunderstorm Partly Cloudy
5:35 PM 71.6 °F - 57.2 °F 60% 30.11 in 10.0 mi NNE 15.0 mph - N/A   Mostly Cloudy
5:55 PM 69.8 °F - 59.0 °F 68% 30.13 in 7.0 mi North 16.1 mph 26.5 mph 0.01 in Thunderstorm Overcast
6:15 PM 66.2 °F - 62.6 °F 88% 30.14 in 4.0 mi North 9.2 mph - 0.02 in Rain Light Rain
6:35 PM 66.2 °F - 60.8 °F 83% 30.13 in 7.0 mi NE 6.9 mph - 0.03 in Rain Light Rain
6:55 PM 66.2 °F - 62.6 °F 88% 30.13 in 7.0 mi East 8.1 mph - 0.04 in Rain , Thunderstorm Light Thunderstorms and Rain
7:15 PM 64.4 °F - 62.6 °F 94% 30.13 in 7.0 mi East 10.4 mph - 0.01 in Rain Light Rain
7:35 PM 64.4 °F - 62.6 °F 94% 30.14 in 9.0 mi SE 8.1 mph - 0.02 in   Mostly Cloudy
9:15 PM 64.4 °F - 62.6 °F 94% 30.18 in 10.0 mi SE 10.4 mph - N/A   Partly Cloudy
9:35 PM 64.4 °F - 62.6 °F 94% 30.19 in 10.0 mi SSE 12.7 mph - N/A   Scattered Clouds
9:55 PM 62.6 °F - 62.6 °F 100% 30.20 in 10.0 mi SSE 12.7 mph - N/A   Mostly Cloudy
10:15 PM 62.6 °F - 62.6 °F 100% 30.21 in 10.0 mi SSE 12.7 mph - N/A   Mostly Cloudy
10:35 PM 62.6 °F - 62.6 °F 100% 30.21 in 10.0 mi SSE 12.7 mph - N/A   Mostly Cloudy
10:55 PM 62.6 °F - 62.6 °F 100% 30.22 in 10.0 mi SSE 11.5 mph - N/A   Overcast
11:15 PM 62.6 °F - 60.8 °F 94% 30.22 in 10.0 mi SSE 11.5 mph - N/A   Overcast
11:35 PM 62.6 °F - 59.0 °F 88% 30.22 in 10.0 mi SE 15.0 mph - N/A   Overcast
11:55 PM 62.6 °F - 59.0 °F 88% 30.23 in 10.0 mi SE 12.7 mph - N/A   Mostly Cloudy